OK1PMP-6 Weather Reports


time (UTC)temp
F
wind
direction
speed
knots
gust
knots
rain 1hr
in
rain 24hr
in
rain mn
in
humidity
%
barometer
mb
20260502163232 77 72 1.7 5.2 0.00 0.00 0.00 24 1022.4
20260502161726 78 64 0.0 8.7 0.00 0.00 0.00 24 1022.5
20260502160225 79 274 0.9 6.1 0.00 0.00 0.00 23 1022.9
20260502151716 80 119 1.7 3.5 0.00 0.00 0.00 22 1023.2
20260502150153 81 61 2.6 5.2 0.00 0.00 0.00 21 1023.5
20260502130113 78 246 1.7 5.2 0.00 0.00 0.00 27 1024.9
20260502123107 78 240 2.6 6.1 0.00 0.00 0.00 26 1025.5
20260502121607 77 147 0.0 6.1 0.00 0.00 0.00 25 1025.7
20260502120112 76 215 1.7 3.5 0.00 0.00 0.00 26 1025.9
20260502114603 76 97 0.9 7.8 0.00 0.00 0.00 25 1026.1
20260502113103 74 136 3.5 9.6 0.00 0.00 0.00 29 1026.1
20260502111600 74 73 4.3 7.0 0.00 0.00 0.00 29 1026.7
20260502110053 74 94 0.9 5.2 0.00 0.00 0.00 31 1026.7
20260502104547 73 72 3.5 7.8 0.00 0.00 0.00 30 1026.8
20260502103042 73 134 2.6 7.8 0.00 0.00 0.00 31 1027.0
20260502101552 74 258 3.5 7.0 0.00 0.00 0.00 31 1027.2
20260502071517 56 191 0.0 1.7 0.00 0.00 0.00 62 1028.6
20260502070016 54 71 0.0 2.6 0.00 0.00 0.00 64 1028.8
20260502064535 52 160 0.9 1.7 0.00 0.00 0.00 67 1029.0
20260502063009 50 71 0.0 0.0 0.00 0.00 0.00 70 1028.9
20260502061515 48 62 0.0 0.0 0.00 0.00 0.00 73 1029.0
20260502060002 46 62 0.0 0.0 0.00 0.00 0.00 78 1029.1
20260502054456 44 62 0.0 0.0 0.00 0.00 0.00 80 1029.0
20260502052951 42 62 0.0 0.0 0.00 0.00 0.00 84 1028.9
20260502051452 40 62 0.0 0.0 0.00 0.00 0.00 86 1029.0
20260502045949 37 62 0.0 0.0 0.00 0.00 0.00 87 1028.9
20260502044448 36 62 0.0 0.0 0.00 0.00 0.00 89 1028.8
20260502042933 35 62 0.0 0.0 0.00 0.00 0.00 85 1028.7
20260502041519 34 62 0.0 0.0 0.00 0.00 0.00 84 1028.9
20260502035930 34 62 0.0 0.0 0.00 0.00 0.00 84 1028.8
20260502034437 34 62 0.0 0.0 0.00 0.00 0.00 84 1028.6
20260502032927 35 62 0.0 0.0 0.00 0.00 0.00 83 1028.6
20260502031426 35 62 0.0 0.0 0.00 0.00 0.00 84 1028.7
20260502025926 35 62 0.0 0.0 0.00 0.00 0.00 85 1028.8
20260502024425 35 62 0.0 0.0 0.00 0.00 0.00 81 1028.6
20260502022920 35 62 0.0 0.0 0.00 0.00 0.00 82 1028.7
20260502021418 36 62 0.0 0.0 0.00 0.00 0.00 81 1028.7
20260502015915 36 62 0.0 0.0 0.00 0.00 0.00 82 1028.8
20260502014414 37 62 0.0 0.0 0.00 0.00 0.00 80 1028.7
20260502012916 37 62 0.0 0.0 0.00 0.00 0.00 82 1028.8
20260502011352 37 62 0.0 0.0 0.00 0.00 0.00 81 1028.9
20260502005847 38 62 0.0 0.0 0.00 0.00 0.00 79 1029.1
20260502004345 40 62 0.0 0.0 0.00 0.00 0.00 79 1028.8
20260502002841 39 62 0.0 0.0 0.00 0.00 0.00 77 1029.0
20260502001338 40 62 0.0 0.0 0.00 0.00 0.00 79 1029.1
20260501235842 40 62 0.0 1.7 0.00 0.00 0.00 78 1029.2
20260501234330 40 26 0.0 0.0 0.00 0.00 0.00 77 1029.2
20260501233823 40 323 0.0 0.0 0.00 0.00 0.00 75 1029.5
20260501231324 41 323 0.0 0.0 0.00 0.00 0.00 74 1029.2
20260501225829 42 323 0.0 0.9 0.00 0.00 0.00 72 1029.2
20260501224326 42 69 0.0 1.7 0.00 0.00 0.00 72 1029.1
20260501222819 43 37 0.0 0.0 0.00 0.00 0.00 70 1029.2
20260501221413 44 37 0.0 0.0 0.00 0.00 0.00 69 1029.2
20260501215815 44 37 0.0 0.0 0.00 0.00 0.00 69 1029.1
20260501214315 44 37 0.0 0.0 0.00 0.00 0.00 68 1029.2
20260501212815 45 37 0.0 0.0 0.00 0.00 0.00 66 1029.2
20260501211308 46 37 0.0 0.0 0.00 0.00 0.00 65 1029.1
20260501205810 46 37 0.0 0.0 0.00 0.00 0.00 63 1029.1
20260501204300 48 37 0.0 0.0 0.00 0.00 0.00 60 1029.0
20260501202802 49 37 0.0 0.0 0.00 0.00 0.00 58 1029.0
20260501201249 51 37 0.0 0.0 0.00 0.00 0.00 56 1029.2
20260501195743 52 37 0.0 0.0 0.00 0.00 0.00 55 1028.9
20260501194300 55 5 0.0 1.7 0.00 0.00 0.00 53 1029.1
20260501192945 54 63 0.0 0.9 0.00 0.00 0.00 53 1028.8
20260501191232 56 64 0.0 2.6 0.00 0.00 0.00 48 1028.7
20260501185726 57 51 0.0 1.7 0.00 0.00 0.00 47 1028.7
20260501184213 57 20 0.0 0.9 0.00 0.00 0.00 47 1028.7
20260501182710 59 333 0.0 0.0 0.00 0.00 0.00 45 1028.6
20260501181211 62 333 0.0 0.9 0.00 0.00 0.00 42 1028.3
20260501175703 64 316 0.0 1.7 0.00 0.00 0.00 41 1028.2
20260501174208 66 4 0.9 5.2 0.00 0.00 0.00 38 1028.1
20260501172700 69 348 3.5 6.1 0.00 0.00 0.00 34 1028.0
20260501171156 69 354 1.7 5.2 0.00 0.00 0.00 33 1028.0
20260501165652 71 308 0.0 6.1 0.00 0.00 0.00 33 1028.2
20260501164151 72 354 5.2 9.6 0.00 0.00 0.00 31 1028.2